POLYTECH-UNIVERSE 3 (R*)

Last updated on Sat Jul 05 2025 00:03:06 GMT+0000 (Coordinated Universal Time)

1 57191U 23091AB 25185.64719098 .00003846 00000+0 21092-3 0 9990 2 57191 97.5565 240.6851 0015567 253.1594 106.7930 15.14676613111268
UTC large
Height (km)
Speed (km/s)
/
Latitude / Longitude
Inclination (degrees)
Orbital Period (minutes)
Azimuth
Elevation
Range (km)
Doppler Factor

Next 0 passes for location: London (51.5072 / 0.1276)

Sorry there are no passes over London.